Showing default

SKYBEE-A01, 62671

Orbit data source: Space-Track

SKYBEE-A01, 62671 is a payload satellite owned by ConstellR (DE) in SSO that was launched on Tue, 14 Jan 2025 UTC via an FALCON 9 launch vehicle from the Air Force Western Test Range (AFWTR). Payload-class satellites include a variety of spacecraft equipped with specific instruments for various scientific and technological missions. These include communications satellites like Starlink; space stations such as the ISS; scientific satellites like the Hubble; Earth observation satellites from companies like Planet Labs, Umbra, and HawkEye 360; GPS; miniature CubeSats for education and research; and military/defense satellites.

Loading next visibility...
Identifier
62671, 2025-009BQ
Orbit
SSO
Last TLE update
10 hours ago
Origin
Manufacturer
NanoAvionics
Mission
Operational Commercial Imaging
Bus & Motor
CUBESAT 16U MP42, Unknown motor
Mass
110 kg wet, 110 kg dry
Launch date (UTC)
2025-01-14 (6 months ago)
Launch vehicle
FALCON 9
Launch site
Air Force Western Test Range (AFWTR)
Object type
Payload
Rocket body
Debris
Shape & HBR
Box + 2 Pan, 0.5 m
Radar Cross Section
0.146 m², Medium (>0.1 m² and < 1m²)

Expand to show TLE details & history

TLE from 10 hours ago
0 SKYBEE-A01
1 62671U 25009BQ  25199.55430028  .00002100  00000-0  10482-3 0  9992
2 62671  97.4296 278.9876 0006980  67.9446 292.2529 15.18579135 85668
Epoch: 2025-07-18T13:18Z
TLE epoch observation values (Epoch: 2025-07-18T13:18:11.544Z)
Latitude
-0°
Longitude
142.83541°
Altitude
511.403 km
Speed
7.609 km/s
True Right ascension
18h 35m 57s
True Declination
0° 00' 00"
Sunlit
Object was in full shadow at epoch
Visualization orbit readout
Latitude
-12.48869°
Longitude
-38.38754°
Altitude
518.491 km
Speed
7.602 km/s
Apparent Right ascension
04h 05m 06s
Apparent Declination
-33° 59' 24"
Sunlit
Object is in daylight
Visualization observer readout
Local Sidereal Time
12:25:47
Azimuth
259.768° W
Elevation
-46.47°
Doppler factor
1
Orbital elements
Apogee altitude
511.909 km
Perigee altitude
502.297 km
Semi-major axis
6,885.24 km
Eccentricity
0.0007
Inclination
97.4296°
RAAN
278.9876°
Arg. of periapsis
67.9446°
True anomaly
292.17885°
Mean anomaly
292.2529°
Eccentric anomaly
292.21588°
Mean motion
3.79896 °/min
Orbital period
94.76 mins
BSTAR
0.00010482
Loading maneuver chart data...
Loading SW <> Apogee altitude chart data...
Loading historical data...
Loading historical data...
Loading historical data...
Loading historical data...
Loading historical data...
Loading historical data...
Loading historical data...
|